Home   Weather   Tegucigalpa   Past weeks
Flag for Honduras

Past Weather in Tegucigalpa, Honduras — Yesterday and Last 2 Weeks

Now
66 °F

Passing clouds.


Feels Like: 66 °F
Forecast: 80 / 60 °F
Wind: No wind

Location: Tegucigalpa Airport

Current Time: Oct 15, 2019 at 8:26:57 pm

Latest Report: Oct 15, 2019 at 7:00 pm


Visibility: N/A

Pressure: 30.12 "Hg (26.63 "Hg at 1054m altitude)

Humidity: 88%

Dew Point: 63 °F

Location of TegucigalpaLocation

Past Weather in Tegucigalpa — Graph

°F

Tegucigalpa Temperature Yesterday

Maximum temperature yesterday: 75 °F (at 11:00 am)
Minimum temperature yesterday: 63 °F (at 9:00 pm)
Average temperature yesterday: 68 °F

High & Low Weather Summary for the Past Weeks

 TemperatureHumidityPressure
High84 °F (Oct 4, 1:00 pm)100% (Oct 1, 10:00 pm)30.18 "Hg (Oct 1, 10:00 pm)
Low55 °F (Oct 13, 11:00 am)45% (Oct 9, 2:00 pm)29.80 "Hg (Oct 13, 4:12 pm)
Average70 °F81%30.06 "Hg
* Reported Sep 30 7:00 pm — Oct 15 7:00 pm, Tegucigalpa. Weather by CustomWeather, © 2019

Note: Actual official high and low records may vary slightly from our data, if they occured in-between our weather recording intervals... More about our weather records

Advertising

Tegucigalpa Weather History for the Previous 24 Hours

Scroll right to see more
 ConditionsComfort  
Time TempWeatherWind HumidityBarometerVisibility
7:00 pm
Tue, Oct 15
66 °FPassing clouds.No wind88%30.12 "HgN/A
6:00 pm68 °FPassing clouds.7 mph83%30.09 "HgN/A
5:00 pm70 °FScattered clouds.9 mph78%30.09 "HgN/A
4:00 pm72 °FScattered clouds.7 mph73%30.07 "HgN/A
3:00 pm75 °FBroken clouds.12 mph65%30.09 "HgN/A
2:00 pm73 °FBroken clouds.7 mph69%30.09 "HgN/A
1:00 pm73 °FPartly sunny.12 mph69%30.12 "HgN/A
12:00 pm73 °FPartly sunny.12 mph74%30.15 "HgN/A
11:00 am72 °FScattered showers. Partly sunny.5 mph73%30.18 "HgN/A
10:00 am72 °FScattered showers. Partly sunny.7 mph83%30.18 "HgN/A
9:00 am68 °FPartly sunny.7 mph83%30.18 "HgN/A
8:00 am68 °FBroken clouds.12 mph83%30.15 "HgN/A
7:00 am68 °FBroken clouds.No wind88%30.12 "HgN/A
6:00 am63 °FBroken clouds.No wind94%30.12 "Hg4 mi
5:00 am64 °FPartly cloudy.5 mph94%30.09 "Hg5 mi
4:00 am63 °FPartly cloudy.2 mph100%30.09 "Hg5 mi
3:00 am64 °FPartly cloudy.No wind94%30.09 "Hg5 mi
2:00 am64 °FLight rain. Partly cloudy.No wind88%30.09 "Hg4 mi
1:00 am64 °FLight rain. Partly cloudy.No wind88%30.09 "Hg4 mi
12:00 am64 °FPartly cloudy.No wind88%30.12 "HgN/A
11:00 pm
Mon, Oct 14
64 °FPartly cloudy.2 mph88%30.12 "HgN/A
10:00 pm63 °FPartly cloudy.No wind100%30.12 "HgN/A
9:00 pm63 °FPassing clouds.No wind100%30.12 "HgN/A
8:00 pm64 °FPartly cloudy.2 mph94%30.09 "HgN/A
Weather by CustomWeather, © 2019

See weather overview